DW2871 Weather Reports


time (UTC)temp
F
wind
direction
speed
knots
gust
knots
rain 1hr
in
rain 24hr
in
rain mn
in
humidity
%
barometer
mb
20260504020014 0 311 0.0 0.0 0.00 0.00 0.00 1008.7
20260504014517 0 317 0.0 0.0 0.00 0.00 0.00 1009.1
20260504013018 0 335 0.0 0.0 0.00 0.00 0.00 1009.8
20260504011600 0 322 0.0 0.0 0.00 0.00 0.00 1010.4
20260504010053 0 323 0.0 0.0 0.00 0.00 0.00 1010.8
20260504004619 0 360 0.0 0.0 0.00 0.00 0.00 1011.5
20260504003050 0 317 0.0 0.0 0.00 0.00 0.00 1012.7
20260504001555 0 320 0.0 0.0 0.00 0.00 0.00 1013.8
20260504000032 0 285 0.0 0.0 0.00 0.00 0.00 1015.5
20260503234529 0 313 0.0 0.0 0.00 0.00 0.00 1017.8
20260503233023 0 15 0.0 0.0 0.00 0.00 0.00 1018.1
20260503231519 0 63 0.0 0.0 0.00 0.00 0.00 1018.3
20260503230011 0 360 0.0 0.0 0.00 0.00 0.00 1018.4
20260503224507 0 17 0.0 0.0 0.00 0.00 0.00 1018.6
20260503223003 0 27 0.0 0.0 0.00 0.00 0.00 1018.5
20260503221528 0 341 0.0 0.0 0.00 0.00 0.00 1018.5
20260503220026 0 350 0.0 0.0 0.00 0.00 0.00 1018.6
20260503214519 0 355 0.0 0.0 0.00 0.00 0.00 1018.6
20260503213013 0 24 0.0 0.0 0.00 0.00 0.00 1018.5
20260503211509 0 300 0.0 0.0 0.00 0.00 0.00 1018.4
20260503210005 0 17 0.0 0.0 0.00 0.00 0.00 1018.1
20260503204601 0 10 0.0 0.0 0.00 0.00 0.00 1018.0
20260503203043 0 334 0.0 0.0 0.00 0.00 0.00 1018.1
20260503201522 0 344 0.0 0.0 0.00 0.00 0.00 1018.0
20260503200048 0 338 0.0 0.0 0.00 0.00 0.00 1018.3
20260503194545 0 306 0.0 0.0 0.00 0.00 0.00 1018.4
20260503193039 0 329 0.0 0.0 0.00 0.00 0.00 1018.5
20260503191535 0 340 0.0 0.0 0.00 0.00 0.00 1018.6
20260503190036 0 329 0.0 0.0 0.00 0.00 0.00 1018.6
20260503184525 0 311 0.0 0.0 0.00 0.00 0.00 1018.7
20260503183049 0 343 0.0 0.0 0.00 0.00 0.00 1018.8
20260503181554 0 12 0.0 0.0 0.00 0.00 0.00 1018.9
20260503180038 0 331 0.0 0.0 0.00 0.00 0.00 1019.0
20260503174534 0 326 0.0 0.0 0.00 0.00 0.00 1019.1
20260503173029 0 312 0.0 0.0 0.00 0.00 0.00 1019.2
20260503171524 0 20 0.0 0.0 0.00 0.00 0.00 1019.1
20260503081559 0 290 0.0 0.0 0.00 0.00 0.00 1018.8
20260503071535 0 296 0.0 0.0 0.00 0.00 0.00 1018.3
20260503060115 0 289 0.0 0.0 0.00 0.00 0.00 1017.9
20260503054600 0 271 0.0 0.0 0.00 0.00 0.00 1018.1
20260503053044 0 297 0.0 0.0 0.00 0.00 0.00 1018.1
20260503051536 0 281 0.0 0.0 0.00 0.00 0.00 1018.0
20260503050033 0 283 0.0 0.0 0.00 0.00 0.00 1018.1
20260503044559 0 299 0.0 0.0 0.00 0.00 0.00 1017.9
20260503043054 0 287 0.0 0.0 0.00 0.00 0.00 1018.1
20260503041548 0 269 0.0 0.0 0.00 0.00 0.00 1018.0
20260503040043 0 282 0.0 0.0 0.00 0.00 0.00 1017.9
20260503034539 0 303 0.0 0.0 0.00 0.00 0.00 1018.0
20260503033034 0 311 0.0 0.0 0.00 0.00 0.00 1017.8
20260503031527 0 252 0.0 0.0 0.00 0.00 0.00 1017.9
20260503030026 0 323 0.0 0.0 0.00 0.00 0.00 1017.9
20260503024517 0 309 0.0 0.0 0.00 0.00 0.00 1017.8
20260503023013 -90 19 0.0 0.0 0.00 0.00 0.00 1017.9
20260503021541 -90 18 0.0 0.0 0.00 0.00 0.00 1018.1